| time (UTC) | temp C | wind direction | speed KPH | gust KPH | rain 1hr cm | rain 24hr cm | rain mn cm | humidity % | barometer mb |
| 20260510230504 | 27 | 316 | 4.8 | 12.9 | 0.00 | 0.00 | 0.00 | 87 | 1014.6 |
| 20260510230006 | 27 | 282 | 8.0 | 12.9 | 0.00 | 0.00 | 0.00 | 86 | 1014.6 |
| 20260510225503 | 27 | 283 | 11.3 | 14.5 | 0.00 | 0.00 | 0.00 | 86 | 1014.6 |
| 20260510225004 | 27 | 271 | 6.4 | 11.3 | 0.00 | 0.00 | 0.00 | 85 | 1014.6 |
| 20260510223504 | 27 | 288 | 8.0 | 12.9 | 0.00 | 0.00 | 0.00 | 85 | 1014.5 |
| 20260510223004 | 27 | 268 | 8.0 | 12.9 | 0.00 | 0.00 | 0.00 | 85 | 1014.5 |
| 20260510222004 | 28 | 275 | 4.8 | 14.5 | 0.00 | 0.00 | 0.00 | 84 | 1014.6 |
| 20260510221504 | 28 | 284 | 4.8 | 11.3 | 0.00 | 0.00 | 0.00 | 84 | 1014.5 |
| 20260510220504 | 28 | 279 | 8.0 | 14.5 | 0.00 | 0.00 | 0.00 | 84 | 1014.4 |
| 20260510220005 | 28 | 282 | 8.0 | 12.9 | 0.00 | 0.00 | 0.00 | 83 | 1014.5 |
| 20260510215504 | 28 | 294 | 8.0 | 14.5 | 0.00 | 0.00 | 0.00 | 83 | 1014.6 |
| 20260510215004 | 28 | 287 | 8.0 | 12.9 | 0.00 | 0.00 | 0.00 | 82 | 1014.5 |
| 20260510214504 | 28 | 241 | 8.0 | 16.1 | 0.00 | 0.00 | 0.00 | 83 | 1014.6 |
| 20260510214004 | 28 | 302 | 4.8 | 11.3 | 0.00 | 0.00 | 0.00 | 82 | 1014.5 |
| 20260510213503 | 28 | 273 | 4.8 | 19.3 | 0.00 | 0.00 | 0.00 | 82 | 1014.7 |
| 20260510213004 | 28 | 285 | 6.4 | 12.9 | 0.00 | 0.00 | 0.00 | 82 | 1014.6 |
| 20260510212504 | 28 | 277 | 8.0 | 12.9 | 0.00 | 0.00 | 0.00 | 82 | 1014.4 |
| 20260510212004 | 28 | 260 | 8.0 | 12.9 | 0.00 | 0.00 | 0.00 | 83 | 1014.5 |
| 20260510211504 | 28 | 268 | 11.3 | 16.1 | 0.00 | 0.00 | 0.00 | 83 | 1014.8 |
| 20260510210505 | 28 | 274 | 8.0 | 14.5 | 0.00 | 0.00 | 0.00 | 80 | 1014.8 |
| 20260510210005 | 29 | 264 | 9.7 | 19.3 | 0.00 | 0.00 | 0.00 | 80 | 1014.8 |
| 20260510205504 | 29 | 316 | 6.4 | 16.1 | 0.00 | 0.00 | 0.00 | 81 | 1014.4 |
| 20260510205004 | 28 | 274 | 9.7 | 14.5 | 0.00 | 0.00 | 0.00 | 81 | 1014.8 |
| 20260510204504 | 28 | 301 | 9.7 | 20.9 | 0.00 | 0.00 | 0.00 | 81 | 1014.8 |
| 20260510204003 | 29 | 285 | 11.3 | 22.5 | 0.00 | 0.00 | 0.00 | 80 | 1014.7 |
| 20260510203504 | 29 | 260 | 8.0 | 14.5 | 0.00 | 0.00 | 0.00 | 79 | 1014.4 |
| 20260510203004 | 29 | 294 | 9.7 | 16.1 | 0.00 | 0.00 | 0.00 | 78 | 1014.5 |
| 20260510202503 | 29 | 285 | 8.0 | 22.5 | 0.00 | 0.00 | 0.00 | 79 | 1014.7 |
| 20260510201504 | 30 | 278 | 8.0 | 14.5 | 0.00 | 0.00 | 0.00 | 76 | 1014.4 |
| 20260510201004 | 29 | 280 | 4.8 | 14.5 | 0.00 | 0.00 | 0.00 | 77 | 1014.4 |
| 20260510200504 | 30 | 253 | 8.0 | 12.9 | 0.00 | 0.00 | 0.00 | 77 | 1014.6 |
| 20260510200004 | 30 | 233 | 4.8 | 12.9 | 0.00 | 0.00 | 0.00 | 77 | 1014.5 |
| 20260510195004 | 30 | 286 | 8.0 | 16.1 | 0.00 | 0.00 | 0.00 | 76 | 1014.8 |
| 20260510194504 | 30 | 248 | 6.4 | 12.9 | 0.00 | 0.00 | 0.00 | 74 | 1014.8 |
| 20260510194004 | 30 | 271 | 8.0 | 16.1 | 0.00 | 0.00 | 0.00 | 74 | 1014.8 |
| 20260510193503 | 30 | 266 | 6.4 | 14.5 | 0.00 | 0.00 | 0.00 | 72 | 1014.3 |
| 20260510193005 | 30 | 231 | 8.0 | 14.5 | 0.00 | 0.00 | 0.00 | 74 | 1014.3 |
| 20260510192504 | 30 | 249 | 9.7 | 19.3 | 0.00 | 0.00 | 0.00 | 74 | 1014.7 |
| 20260510192004 | 30 | 252 | 8.0 | 14.5 | 0.00 | 0.00 | 0.00 | 71 | 1014.7 |
| 20260510191504 | 30 | 220 | 8.0 | 14.5 | 0.00 | 0.00 | 0.00 | 73 | 1014.6 |
| 20260510190504 | 30 | 242 | 9.7 | 16.1 | 0.00 | 0.00 | 0.00 | 74 | 1014.6 |
| 20260510190004 | 30 | 270 | 8.0 | 16.1 | 0.00 | 0.00 | 0.00 | 72 | 1014.7 |
| 20260510185504 | 31 | 257 | 8.0 | 16.1 | 0.00 | 0.00 | 0.00 | 71 | 1015.0 |
| 20260510184503 | 31 | 249 | 9.7 | 14.5 | 0.00 | 0.00 | 0.00 | 70 | 1014.5 |
| 20260510183004 | 31 | 253 | 8.0 | 16.1 | 0.00 | 0.00 | 0.00 | 68 | 1014.5 |
| 20260510182003 | 31 | 258 | 9.7 | 12.9 | 0.00 | 0.00 | 0.00 | 68 | 1014.9 |
| 20260510181504 | 31 | 238 | 8.0 | 16.1 | 0.00 | 0.00 | 0.00 | 65 | 1014.8 |
| 20260510181003 | 31 | 244 | 8.0 | 14.5 | 0.00 | 0.00 | 0.00 | 65 | 1014.6 |
| 20260510180504 | 31 | 270 | 4.8 | 11.3 | 0.00 | 0.00 | 0.00 | 67 | 1015.1 |
| 20260510180004 | 31 | 245 | 6.4 | 14.5 | 0.00 | 0.00 | 0.00 | 68 | 1015.2 |
| 20260510175503 | 32 | 262 | 4.8 | 12.9 | 0.00 | 0.00 | 0.00 | 64 | 1015.0 |
| 20260510175004 | 32 | 262 | 6.4 | 12.9 | 0.00 | 0.00 | 0.00 | 64 | 1014.7 |
| 20260510174503 | 32 | 258 | 9.7 | 14.5 | 0.00 | 0.00 | 0.00 | 66 | 1014.7 |
| 20260510174004 | 31 | 275 | 4.8 | 12.9 | 0.00 | 0.00 | 0.00 | 64 | 1014.5 |
| 20260510173004 | 31 | 281 | 6.4 | 16.1 | 0.00 | 0.00 | 0.00 | 66 | 1014.9 |
| 20260510171504 | 32 | 230 | 8.0 | 12.9 | 0.00 | 0.00 | 0.00 | 62 | 1014.7 |
| 20260510170504 | 32 | 272 | 8.0 | 14.5 | 0.00 | 0.00 | 0.00 | 66 | 1015.1 |
| 20260510170004 | 32 | 233 | 4.8 | 12.9 | 0.00 | 0.00 | 0.00 | 66 | 1014.6 |
| 20260510165003 | 32 | 246 | 6.4 | 12.9 | 0.00 | 0.00 | 0.00 | 62 | 1014.8 |
| 20260510164504 | 31 | 223 | 6.4 | 14.5 | 0.00 | 0.00 | 0.00 | 64 | 1014.6 |
| 20260510164003 | 31 | 191 | 6.4 | 12.9 | 0.00 | 0.00 | 0.00 | 66 | 1014.6 |
| 20260510163504 | 31 | 248 | 4.8 | 12.9 | 0.00 | 0.00 | 0.00 | 70 | 1015.6 |
| 20260510163003 | 32 | 234 | 3.2 | 9.7 | 0.00 | 0.00 | 0.00 | 67 | 1015.0 |
| 20260510162504 | 31 | 203 | 4.8 | 11.3 | 0.00 | 0.00 | 0.00 | 69 | 1014.9 |
| 20260510162004 | 31 | 228 | 4.8 | 12.9 | 0.00 | 0.00 | 0.00 | 65 | 1014.7 |
| 20260510161004 | 31 | 182 | 4.8 | 12.9 | 0.00 | 0.00 | 0.00 | 72 | 1015.1 |
| 20260510160504 | 31 | 198 | 9.7 | 16.1 | 0.00 | 0.00 | 0.00 | 71 | 1014.8 |
| 20260510160004 | 31 | 184 | 6.4 | 11.3 | 0.00 | 0.00 | 0.00 | 72 | 1014.9 |
| 20260510155504 | 31 | 225 | 1.6 | 9.7 | 0.00 | 0.00 | 0.00 | 72 | 1015.4 |
| 20260510155004 | 30 | 184 | 4.8 | 14.5 | 0.00 | 0.00 | 0.00 | 74 | 1014.6 |
| 20260510154504 | 30 | 230 | 6.4 | 14.5 | 0.00 | 0.00 | 0.00 | 74 | 1014.9 |
| 20260510154004 | 30 | 186 | 3.2 | 11.3 | 0.00 | 0.00 | 0.00 | 75 | 1015.1 |
| 20260510153004 | 30 | 142 | 4.8 | 14.5 | 0.00 | 0.00 | 0.00 | 77 | 1015.4 |
| 20260510152504 | 30 | 159 | 8.0 | 14.5 | 0.00 | 0.00 | 0.00 | 76 | 1015.2 |
| 20260510152004 | 30 | 159 | 3.2 | 12.9 | 0.00 | 0.00 | 0.00 | 78 | 1015.4 |
| 20260510151003 | 30 | 157 | 3.2 | 12.9 | 0.00 | 0.00 | 0.00 | 77 | 1014.8 |
| 20260510150503 | 30 | 189 | 3.2 | 11.3 | 0.00 | 0.00 | 0.00 | 80 | 1015.1 |
| 20260510150004 | 30 | 248 | 4.8 | 8.0 | 0.00 | 0.00 | 0.00 | 80 | 1015.2 |
| 20260510144504 | 30 | 211 | 3.2 | 12.9 | 0.00 | 0.00 | 0.00 | 73 | 1015.0 |
| 20260510144004 | 30 | 163 | 8.0 | 14.5 | 0.00 | 0.00 | 0.00 | 76 | 1014.7 |
| 20260510143504 | 29 | 119 | 9.7 | 16.1 | 0.00 | 0.00 | 0.00 | 76 | 1014.7 |
| 20260510143004 | 29 | 132 | 8.0 | 14.5 | 0.00 | 0.00 | 0.00 | 77 | 1014.5 |
| 20260510142504 | 28 | 126 | 6.4 | 16.1 | 0.00 | 0.00 | 0.00 | 77 | 1014.3 |
| 20260510142004 | 28 | 175 | 6.4 | 9.7 | 0.00 | 0.00 | 0.00 | 79 | 1015.1 |
| 20260510141503 | 28 | 177 | 6.4 | 12.9 | 0.00 | 0.00 | 0.00 | 79 | 1015.5 |
| 20260510141004 | 28 | 173 | 4.8 | 12.9 | 0.00 | 0.00 | 0.00 | 78 | 1015.4 |
| 20260510140504 | 29 | 185 | 8.0 | 12.9 | 0.00 | 0.00 | 0.00 | 79 | 1015.1 |
| 20260510140004 | 28 | 139 | 6.4 | 11.3 | 0.00 | 0.00 | 0.00 | 80 | 1014.5 |
| 20260510135504 | 28 | 140 | 9.7 | 20.9 | 0.00 | 0.00 | 0.00 | 80 | 1015.2 |
| 20260510135004 | 28 | 128 | 3.2 | 14.5 | 0.00 | 0.00 | 0.00 | 80 | 1014.4 |
| 20260510134505 | 28 | 151 | 4.8 | 12.9 | 0.00 | 0.00 | 0.00 | 80 | 1014.3 |
| 20260510133504 | 28 | 149 | 9.7 | 19.3 | 0.00 | 0.00 | 0.00 | 80 | 1014.2 |
| 20260510133004 | 28 | 158 | 8.0 | 19.3 | 0.00 | 0.00 | 0.00 | 80 | 1014.2 |
| 20260510132503 | 28 | 160 | 8.0 | 12.9 | 0.00 | 0.00 | 0.00 | 81 | 1014.2 |
| 20260510132004 | 27 | 153 | 8.0 | 14.5 | 0.00 | 0.00 | 0.00 | 82 | 1014.3 |
| 20260510131004 | 27 | 146 | 9.7 | 16.1 | 0.00 | 0.00 | 0.00 | 83 | 1014.5 |
| 20260510125504 | 27 | 166 | 4.8 | 11.3 | 0.00 | 0.00 | 0.00 | 84 | 1014.1 |
| 20260510125004 | 26 | 165 | 6.4 | 16.1 | 0.00 | 0.00 | 0.00 | 86 | 1014.2 |
| 20260510124504 | 26 | 149 | 4.8 | 12.9 | 0.00 | 0.00 | 0.00 | 87 | 1014.1 |
| 20260510124004 | 26 | 158 | 4.8 | 9.7 | 0.00 | 0.00 | 0.00 | 87 | 1014.2 |
| 20260510123504 | 26 | 152 | 8.0 | 11.3 | 0.00 | 0.00 | 0.00 | 88 | 1014.1 |
| 20260510123004 | 25 | 149 | 8.0 | 12.9 | 0.00 | 0.00 | 0.00 | 89 | 1014.2 |
| 20260510122504 | 25 | 124 | 4.8 | 9.7 | 0.00 | 0.00 | 0.00 | 91 | 1014.2 |
| 20260510122004 | 25 | 128 | 8.0 | 12.9 | 0.00 | 0.00 | 0.00 | 91 | 1014.3 |
| 20260510121504 | 25 | 134 | 4.8 | 11.3 | 0.00 | 0.00 | 0.00 | 92 | 1014.5 |
| 20260510121004 | 25 | 132 | 6.4 | 11.3 | 0.00 | 0.00 | 0.00 | 92 | 1014.5 |
| 20260510115505 | 25 | 137 | 8.0 | 11.3 | 0.00 | 0.00 | 0.00 | 92 | 1014.2 |
| 20260510114504 | 25 | 130 | 3.2 | 4.8 | 0.00 | 0.00 | 0.00 | 93 | 1014.0 |
| 20260510114004 | 24 | 127 | 4.8 | 4.8 | 0.00 | 0.00 | 0.00 | 93 | 1014.0 |
| 20260510113504 | 24 | 125 | 4.8 | 8.0 | 0.00 | 0.00 | 0.00 | 93 | 1013.9 |
| 20260510112504 | 24 | 119 | 3.2 | 8.0 | 0.00 | 0.00 | 0.00 | 93 | 1013.9 |
| 20260510111504 | 24 | 122 | 4.8 | 8.0 | 0.00 | 0.00 | 0.00 | 93 | 1013.8 |
| 20260510111004 | 24 | 128 | 4.8 | 8.0 | 0.00 | 0.00 | 0.00 | 93 | 1013.7 |
| 20260510110005 | 24 | 123 | 4.8 | 8.0 | 0.00 | 0.00 | 0.00 | 93 | 1013.5 |
| 20260510105504 | 24 | 129 | 4.8 | 8.0 | 0.00 | 0.00 | 0.00 | 93 | 1013.6 |
| 20260510104503 | 24 | 128 | 4.8 | 8.0 | 0.00 | 0.00 | 0.00 | 94 | 1013.4 |
| 20260510104004 | 24 | 128 | 4.8 | 8.0 | 0.00 | 0.00 | 0.00 | 94 | 1013.3 |
| 20260510103504 | 24 | 132 | 4.8 | 9.7 | 0.00 | 0.00 | 0.00 | 94 | 1013.1 |
| 20260510103004 | 24 | 136 | 3.2 | 4.8 | 0.00 | 0.00 | 0.00 | 93 | 1013.2 |
| 20260510102504 | 24 | 138 | 3.2 | 4.8 | 0.00 | 0.00 | 0.00 | 93 | 1013.1 |
| 20260510102003 | 24 | 122 | 3.2 | 8.0 | 0.00 | 0.00 | 0.00 | 93 | 1013.0 |
| 20260510101504 | 24 | 131 | 4.8 | 8.0 | 0.00 | 0.00 | 0.00 | 93 | 1012.9 |
| 20260510101003 | 24 | 116 | 3.2 | 4.8 | 0.00 | 0.00 | 0.00 | 93 | 1012.8 |
| 20260510100504 | 24 | 124 | 3.2 | 8.0 | 0.00 | 0.00 | 0.00 | 93 | 1012.8 |
| 20260510100004 | 24 | 123 | 3.2 | 8.0 | 0.00 | 0.00 | 0.00 | 93 | 1012.7 |
| 20260510095004 | 24 | 130 | 8.0 | 11.3 | 0.00 | 0.00 | 0.00 | 93 | 1012.5 |
| 20260510094504 | 24 | 130 | 9.7 | 12.9 | 0.00 | 0.00 | 0.00 | 94 | 1012.4 |
| 20260510094003 | 24 | 127 | 8.0 | 9.7 | 0.00 | 0.00 | 0.00 | 94 | 1012.5 |
| 20260510093503 | 24 | 136 | 6.4 | 11.3 | 0.00 | 0.00 | 0.00 | 94 | 1012.6 |
| 20260510093003 | 24 | 132 | 4.8 | 8.0 | 0.00 | 0.00 | 0.00 | 93 | 1012.5 |
| 20260510092504 | 24 | 134 | 4.8 | 8.0 | 0.00 | 0.00 | 0.00 | 93 | 1012.4 |
| 20260510092003 | 25 | 133 | 3.2 | 8.0 | 0.00 | 0.00 | 0.00 | 93 | 1012.4 |
| 20260510091503 | 25 | 136 | 3.2 | 8.0 | 0.00 | 0.00 | 0.00 | 93 | 1012.5 |
| 20260510091004 | 25 | 137 | 4.8 | 9.7 | 0.00 | 0.00 | 0.00 | 93 | 1012.4 |
| 20260510090004 | 25 | 136 | 4.8 | 9.7 | 0.00 | 0.00 | 0.00 | 92 | 1012.1 |
| 20260510085504 | 25 | 130 | 4.8 | 9.7 | 0.00 | 0.00 | 0.00 | 92 | 1012.1 |
| 20260510085004 | 25 | 134 | 6.4 | 12.9 | 0.00 | 0.00 | 0.00 | 92 | 1012.1 |
| 20260510084004 | 25 | 134 | 8.0 | 12.9 | 0.00 | 0.00 | 0.00 | 93 | 1011.9 |
| 20260510083505 | 25 | 131 | 8.0 | 12.9 | 0.00 | 0.00 | 0.00 | 93 | 1011.9 |
| 20260510082504 | 25 | 133 | 11.3 | 14.5 | 0.00 | 0.00 | 0.00 | 94 | 1011.9 |
| 20260510082004 | 25 | 131 | 9.7 | 14.5 | 0.00 | 0.00 | 0.00 | 94 | 1011.9 |
| 20260510081504 | 25 | 136 | 9.7 | 16.1 | 0.00 | 0.00 | 0.00 | 94 | 1012.0 |
| 20260510081003 | 25 | 135 | 11.3 | 16.1 | 0.00 | 0.00 | 0.00 | 94 | 1012.0 |
| 20260510080504 | 25 | 134 | 9.7 | 12.9 | 0.00 | 0.00 | 0.00 | 95 | 1012.1 |
| 20260510075504 | 25 | 129 | 8.0 | 11.3 | 0.00 | 0.00 | 0.00 | 95 | 1012.2 |
| 20260510074504 | 25 | 131 | 9.7 | 11.3 | 0.00 | 0.00 | 0.00 | 95 | 1012.2 |
| 20260510074004 | 25 | 134 | 6.4 | 9.7 | 0.00 | 0.00 | 0.00 | 95 | 1012.2 |
| 20260510073503 | 25 | 138 | 4.8 | 8.0 | 0.00 | 0.00 | 0.00 | 95 | 1012.2 |
| 20260510073004 | 25 | 128 | 4.8 | 8.0 | 0.00 | 0.00 | 0.00 | 95 | 1012.2 |
| 20260510072503 | 25 | 128 | 3.2 | 8.0 | 0.00 | 0.00 | 0.00 | 94 | 1012.2 |
| 20260510072004 | 25 | 130 | 4.8 | 9.7 | 0.00 | 0.00 | 0.00 | 94 | 1012.2 |
| 20260510071504 | 25 | 123 | 3.2 | 8.0 | 0.00 | 0.00 | 0.00 | 94 | 1012.3 |
| 20260510071003 | 25 | 130 | 6.4 | 9.7 | 0.00 | 0.00 | 0.00 | 94 | 1012.3 |
| 20260510070504 | 25 | 133 | 4.8 | 9.7 | 0.00 | 0.00 | 0.00 | 94 | 1012.4 |
| 20260510070004 | 25 | 125 | 3.2 | 4.8 | 0.00 | 0.00 | 0.00 | 94 | 1012.4 |
| 20260510065504 | 25 | 139 | 3.2 | 4.8 | 0.00 | 0.00 | 0.00 | 94 | 1012.5 |
| 20260510065003 | 25 | 142 | 3.2 | 4.8 | 0.00 | 0.00 | 0.00 | 94 | 1012.5 |
| 20260510063003 | 26 | 124 | 4.8 | 8.0 | 0.00 | 0.00 | 0.00 | 94 | 1012.7 |
| 20260510062504 | 26 | 135 | 4.8 | 9.7 | 0.00 | 0.00 | 0.00 | 94 | 1012.7 |
| 20260510062004 | 26 | 139 | 4.8 | 11.3 | 0.00 | 0.00 | 0.00 | 93 | 1012.8 |
| 20260510061504 | 26 | 136 | 4.8 | 8.0 | 0.00 | 0.00 | 0.00 | 93 | 1012.9 |
| 20260510061004 | 26 | 135 | 4.8 | 8.0 | 0.00 | 0.00 | 0.00 | 93 | 1013.0 |
| 20260510060504 | 26 | 141 | 3.2 | 4.8 | 0.00 | 0.00 | 0.00 | 92 | 1013.1 |
| 20260510060005 | 26 | 124 | 4.8 | 8.0 | 0.00 | 0.00 | 0.00 | 92 | 1013.1 |
| 20260510055004 | 26 | 154 | 1.6 | 8.0 | 0.00 | 0.00 | 0.00 | 92 | 1013.2 |
| 20260510054004 | 26 | 134 | 4.8 | 8.0 | 0.00 | 0.00 | 0.00 | 92 | 1013.3 |
| 20260510053504 | 26 | 123 | 3.2 | 4.8 | 0.00 | 0.00 | 0.00 | 91 | 1013.4 |
| 20260510053004 | 26 | 128 | 3.2 | 4.8 | 0.00 | 0.00 | 0.00 | 91 | 1013.5 |
| 20260510052503 | 26 | 137 | 0.0 | 3.2 | 0.00 | 0.00 | 0.00 | 90 | 1013.5 |
| 20260510052003 | 26 | 138 | 0.0 | 1.6 | 0.00 | 0.00 | 0.00 | 89 | 1013.5 |
| 20260510051504 | 26 | 117 | 1.6 | 4.8 | 0.00 | 0.00 | 0.00 | 89 | 1013.5 |
| 20260510051004 | 26 | 121 | 3.2 | 4.8 | 0.00 | 0.00 | 0.00 | 89 | 1013.4 |
| 20260510050504 | 26 | 118 | 0.0 | 3.2 | 0.00 | 0.00 | 0.00 | 89 | 1013.5 |
| 20260510050004 | 26 | 134 | 0.0 | 1.6 | 0.00 | 0.00 | 0.00 | 89 | 1013.5 |
| 20260510045504 | 26 | 287 | 0.0 | 1.6 | 0.00 | 0.00 | 0.00 | 89 | 1013.6 |
| 20260510045004 | 26 | 288 | 0.0 | 3.2 | 0.00 | 0.00 | 0.00 | 89 | 1013.6 |
| 20260510044503 | 26 | 184 | 0.0 | 3.2 | 0.00 | 0.00 | 0.00 | 89 | 1013.6 |
| 20260510044003 | 26 | 144 | 0.0 | 3.2 | 0.00 | 0.00 | 0.00 | 90 | 1013.6 |
| 20260510043004 | 26 | 106 | 0.0 | 0.0 | 0.00 | 0.00 | 0.00 | 90 | 1013.8 |
| 20260510042504 | 26 | 106 | 0.0 | 1.6 | 0.00 | 0.00 | 0.00 | 90 | 1013.7 |
| 20260510042004 | 26 | 156 | 0.0 | 1.6 | 0.00 | 0.00 | 0.00 | 90 | 1013.7 |
| 20260510041004 | 26 | 319 | 0.0 | 1.6 | 0.00 | 0.00 | 0.00 | 90 | 1013.7 |
| 20260510040504 | 26 | 328 | 0.0 | 3.2 | 0.00 | 0.00 | 0.00 | 90 | 1013.8 |
| 20260510040004 | 26 | 259 | 0.0 | 1.6 | 0.00 | 0.00 | 0.00 | 90 | 1013.9 |
| 20260510035504 | 26 | 301 | 0.0 | 1.6 | 0.00 | 0.00 | 0.00 | 90 | 1013.8 |
| 20260510035004 | 26 | 226 | 0.0 | 3.2 | 0.00 | 0.00 | 0.00 | 90 | 1013.7 |
| 20260510034004 | 26 | 220 | 1.6 | 3.2 | 0.00 | 0.00 | 0.00 | 90 | 1013.5 |
| 20260510033504 | 26 | 211 | 1.6 | 8.0 | 0.00 | 0.00 | 0.00 | 90 | 1013.5 |
| 20260510033004 | 26 | 177 | 1.6 | 3.2 | 0.00 | 0.00 | 0.00 | 90 | 1013.6 |
| 20260510032004 | 26 | 176 | 3.2 | 4.8 | 0.00 | 0.00 | 0.00 | 90 | 1013.5 |
| 20260510031504 | 26 | 148 | 1.6 | 4.8 | 0.00 | 0.00 | 0.00 | 89 | 1013.5 |
| 20260510030004 | 26 | 226 | 3.2 | 4.8 | 0.00 | 0.00 | 0.00 | 89 | 1013.5 |
| 20260510025504 | 26 | 205 | 1.6 | 4.8 | 0.00 | 0.00 | 0.00 | 90 | 1013.5 |
| 20260510025004 | 26 | 225 | 1.6 | 4.8 | 0.00 | 0.00 | 0.00 | 90 | 1013.5 |
| 20260510024504 | 26 | 218 | 1.6 | 3.2 | 0.00 | 0.00 | 0.00 | 90 | 1013.5 |
| 20260510024004 | 26 | 256 | 1.6 | 3.2 | 0.00 | 0.00 | 0.00 | 90 | 1013.5 |
| 20260510023504 | 26 | 248 | 1.6 | 3.2 | 0.00 | 0.00 | 0.00 | 90 | 1013.4 |
| 20260510023004 | 26 | 217 | 3.2 | 4.8 | 0.00 | 0.00 | 0.00 | 90 | 1013.3 |
| 20260510022504 | 26 | 259 | 1.6 | 4.8 | 0.00 | 0.00 | 0.00 | 90 | 1013.3 |
| 20260510022004 | 26 | 278 | 1.6 | 3.2 | 0.00 | 0.00 | 0.00 | 89 | 1013.3 |
| 20260510021504 | 26 | 287 | 1.6 | 8.0 | 0.00 | 0.00 | 0.00 | 89 | 1013.2 |
| 20260510021003 | 26 | 279 | 3.2 | 4.8 | 0.00 | 0.00 | 0.00 | 89 | 1013.3 |
| 20260510020504 | 26 | 310 | 1.6 | 8.0 | 0.00 | 0.00 | 0.00 | 89 | 1013.3 |
| 20260510020004 | 26 | 266 | 3.2 | 8.0 | 0.00 | 0.00 | 0.00 | 89 | 1013.3 |
| 20260510015503 | 26 | 281 | 3.2 | 8.0 | 0.00 | 0.00 | 0.00 | 89 | 1013.3 |
| 20260510015004 | 26 | 279 | 1.6 | 9.7 | 0.00 | 0.00 | 0.00 | 89 | 1013.3 |
| 20260510014504 | 26 | 305 | 3.2 | 9.7 | 0.00 | 0.00 | 0.00 | 89 | 1013.3 |
| 20260510013504 | 26 | 254 | 0.0 | 8.0 | 0.00 | 0.00 | 0.00 | 89 | 1013.2 |
| 20260510013004 | 26 | 275 | 4.8 | 8.0 | 0.00 | 0.00 | 0.00 | 89 | 1013.1 |
| 20260510012504 | 26 | 279 | 3.2 | 8.0 | 0.00 | 0.00 | 0.00 | 89 | 1013.2 |
| 20260510012004 | 26 | 234 | 1.6 | 4.8 | 0.00 | 0.00 | 0.00 | 89 | 1013.1 |
| 20260510011003 | 26 | 167 | 0.0 | 4.8 | 0.00 | 0.00 | 0.00 | 88 | 1012.9 |
| 20260510010504 | 26 | 268 | 3.2 | 9.7 | 0.00 | 0.00 | 0.00 | 88 | 1012.7 |
| 20260510010004 | 26 | 286 | 3.2 | 9.7 | 0.00 | 0.00 | 0.00 | 88 | 1012.6 |
| 20260510005504 | 26 | 303 | 1.6 | 9.7 | 0.00 | 0.00 | 0.00 | 88 | 1012.6 |
| 20260510005004 | 26 | 296 | 1.6 | 8.0 | 0.00 | 0.00 | 0.00 | 88 | 1012.6 |
| 20260510004503 | 26 | 290 | 3.2 | 4.8 | 0.00 | 0.00 | 0.00 | 88 | 1012.6 |
| 20260510004004 | 27 | 260 | 4.8 | 9.7 | 0.00 | 0.00 | 0.00 | 87 | 1012.5 |
| 20260510003004 | 27 | 284 | 3.2 | 9.7 | 0.00 | 0.00 | 0.00 | 87 | 1012.5 |
| 20260510002004 | 27 | 268 | 4.8 | 11.3 | 0.00 | 0.00 | 0.00 | 86 | 1012.4 |
| 20260510001004 | 27 | 244 | 4.8 | 11.3 | 0.00 | 0.00 | 0.00 | 85 | 1012.2 |
| 20260510000504 | 27 | 262 | 4.8 | 11.3 | 0.00 | 0.00 | 0.00 | 85 | 1012.1 |
| 20260509235003 | 27 | 272 | 4.8 | 9.7 | 0.00 | 0.00 | 0.00 | 85 | 1012.0 |
| 20260509234004 | 27 | 208 | 6.4 | 14.5 | 0.00 | 0.00 | 0.00 | 85 | 1011.8 |
| 20260509233503 | 27 | 230 | 4.8 | 9.7 | 0.00 | 0.00 | 0.00 | 84 | 1011.9 |
| 20260509233004 | 27 | 266 | 4.8 | 14.5 | 0.00 | 0.00 | 0.00 | 84 | 1012.0 |
| 20260509232504 | 27 | 224 | 8.0 | 14.5 | 0.00 | 0.00 | 0.00 | 84 | 1012.0 |
| 20260509231504 | 27 | 256 | 8.0 | 12.9 | 0.00 | 0.00 | 0.00 | 83 | 1012.0 |